Flag for U.S.A. Weather past 2 weeks in Eau Claire, Wisconsin, U.S.A.

Now
53 °F

Low clouds.


Feels Like: 51 °F
Forecast: 45 / 65 °F
Wind: 8 mph from Southeast

Location: Eau Claire County Airport

Current Time: Sep 18, 2014 at 1:45:50 PM

Latest Report: Sep 18, 2014 at 11:56 AM


Visibility: 10 mi

Pressure: 30.16 "Hg

Humidity: 86%

Dew point: 49 °F

Location of Eau ClaireLocation

Historic Weather in Eau Claire — Graph

°F

Eau Claire temperature yesterday

Maximum temperature yesterday: 71 °F (at 2:56 PM)
Minimum temperature yesterday: 42 °F (at 2:56 AM)
Average temperature yesterday: 56 °F

Past Weeks' High & Low Weather Summary

 TemperatureHumidityPressure
High78 °F (Sep 9, 1:56 PM)100% (Sep 3, 11:56 PM)30.44 "Hg (Sep 3, 11:56 PM)
Low35 °F (Sep 13, 1:56 AM)39% (Sep 7, 2:56 PM)29.59 "Hg (Sep 10, 5:56 AM)
Average57 °F77%30.06 "Hg
* Reported Sep 3 11:56 AM — Sep 18 11:56 AM, Eau Claire, Weather by CustomWeather, © 2014

Note: Actual official high and low records may vary slightly from our data, if they occured in-between our weather recording intervals... More about our weather records

Advertising

Eau Claire weather history for previous 24 hours

 ConditionsComfort  
Time TempWeatherWind HumidityBarometerVisibility
11:56 AM
Sep 18
53 °FLow clouds.8 mph86%30.16 "Hg10 mi
10:56 AM51 °FLow clouds.9 mph89%30.16 "Hg10 mi
9:56 AM49 °FFog.9 mph93%30.15 "Hg5 mi
8:56 AM48 °FFog.8 mph96%30.15 "Hg3 mi
7:56 AM47 °FFog.7 mph93%30.13 "Hg3 mi
6:56 AM48 °FPassing clouds.9 mph89%30.11 "Hg10 mi
5:56 AM47 °FPassing clouds.6 mph93%30.09 "Hg10 mi
4:56 AM48 °FLow clouds.6 mph96%30.09 "Hg10 mi
3:56 AM47 °FClear.6 mph93%30.08 "Hg10 mi
2:56 AM48 °FClear.7 mph93%30.07 "Hg10 mi
1:56 AM49 °FClear.6 mph90%30.07 "Hg10 mi
12:56 AM51 °FClear.6 mph89%30.06 "Hg10 mi
11:56 PM
Sep 17
54 °FClear.8 mph86%30.05 "Hg10 mi
10:56 PM55 °FClear.7 mph87%30.04 "Hg10 mi
9:56 PM53 °FClear.8 mph93%30.02 "Hg9 mi
8:56 PM56 °FClear.No wind90%30.00 "Hg10 mi
7:56 PM58 °FSunny.No wind87%29.98 "Hg10 mi
6:56 PM66 °FSunny.No wind63%29.96 "Hg10 mi
5:56 PM69 °FPassing clouds.No wind55%29.96 "Hg10 mi
4:56 PM70 °FScattered clouds.No wind49%29.95 "Hg10 mi
3:56 PM69 °FScattered clouds.No wind49%29.96 "Hg10 mi
2:56 PM71 °FPartly sunny.5 mph47%29.95 "Hg10 mi
1:56 PM69 °FPassing clouds.3 mph49%29.96 "Hg10 mi
Weather by CustomWeather, © 2014

See weather overviewHow to use our weather pages